BAW2927 EGLL-ESSA

Flight info

Callsign BAW2927
Flight time N/A
Altitude 39000
Route BPK Q295 SOMVA DCT MAVAS DCT ANDIK N873 JUIST DCT DOSUR DCT MIKNA N851 PELUP Z226 NILUG
Aircraft A339/H-SADE1E2E3GHIJ3J5M1P2RWXY/LB2D1

Departure

Time 2026-04-30 13:37
Airport London Heathrow Airport (EGLL)

Arrival

Time N/A
Airport Stockholm-Arlanda Airport (ESSA)
Time Latitude Longitude Altitude Speed Heading
2026-04-30 13:34 51.46654 -0.48080 97 ft 10 kts 266°
2026-04-30 13:34 51.46509 -0.48210 99 ft 11 kts 178°
2026-04-30 13:35 51.46479 -0.48146 101 ft 8 kts 108°
2026-04-30 13:35 51.46480 -0.48088 98 ft 0 kts 87°
2026-04-30 13:36 51.46481 -0.48058 96 ft 9 kts 89°
2026-04-30 13:36 51.46486 -0.46191 158 ft 157 kts 90°
2026-04-30 13:37 51.46485 -0.44312 780 ft 178 kts 92°
2026-04-30 13:37 51.46759 -0.40280 2604 ft 196 kts 67°
2026-04-30 13:38 51.48478 -0.36354 3868 ft 234 kts 66°
2026-04-30 13:38 51.49163 -0.33918 4314 ft 249 kts 73°
2026-04-30 13:38 51.50452 -0.28588 5688 ft 263 kts 74°
2026-04-30 13:39 51.51834 -0.22994 7128 ft 274 kts 72°
2026-04-30 13:39 51.53273 -0.17296 8741 ft 277 kts 72°
2026-04-30 13:40 51.54000 -0.14412 9546 ft 279 kts 72°
2026-04-30 13:40 51.54732 -0.11501 10377 ft 283 kts 72°
2026-04-30 13:40 51.55486 -0.08490 10733 ft 301 kts 72°
2026-04-30 13:40 51.56278 -0.05298 10928 ft 322 kts 72°
2026-04-30 13:41 51.57130 -0.01873 11340 ft 334 kts 72°
2026-04-30 13:41 51.57999 0.01598 11997 ft 335 kts 72°
2026-04-30 13:41 51.58876 0.05105 12645 ft 340 kts 72°
2026-04-30 13:41 51.59761 0.08659 13300 ft 344 kts 72°
2026-04-30 13:42 51.60656 0.12258 13934 ft 349 kts 72°
2026-04-30 13:42 51.61560 0.15907 14506 ft 353 kts 72°
2026-04-30 13:42 51.63385 0.23303 15686 ft 359 kts 72°
2026-04-30 13:43 51.64313 0.27071 16253 ft 363 kts 72°
2026-04-30 13:43 51.65236 0.30819 16817 ft 366 kts 72°
2026-04-30 13:43 51.66180 0.34664 17418 ft 370 kts 72°
2026-04-30 13:43 51.67129 0.38539 17983 ft 374 kts 72°
2026-04-30 13:44 51.68090 0.42463 18558 ft 377 kts 72°
2026-04-30 13:44 51.69053 0.46408 19081 ft 379 kts 72°
2026-04-30 13:44 51.70020 0.50373 19671 ft 380 kts 72°
2026-04-30 13:44 51.70990 0.54355 20240 ft 382 kts 72°
2026-04-30 13:45 51.72937 0.62373 21362 ft 386 kts 72°
2026-04-30 13:45 51.73907 0.66378 21895 ft 388 kts 72°
2026-04-30 13:45 51.74894 0.70462 22452 ft 390 kts 72°
2026-04-30 13:46 51.75882 0.74560 23021 ft 393 kts 72°
2026-04-30 13:46 51.76874 0.78680 23580 ft 395 kts 72°
2026-04-30 13:46 51.77872 0.82833 24098 ft 397 kts 72°
2026-04-30 13:46 51.78536 0.85601 24398 ft 399 kts 72°
2026-04-30 13:47 51.79873 0.91187 25000 ft 403 kts 72°
2026-04-30 13:47 51.80558 0.94053 25307 ft 405 kts 72°
2026-04-30 13:47 51.81907 0.99719 25815 ft 411 kts 72°
2026-04-30 13:47 51.82602 1.02643 26115 ft 412 kts 72°
2026-04-30 13:48 51.83622 1.06935 26570 ft 415 kts 72°
2026-04-30 13:48 51.84661 1.11313 26999 ft 418 kts 72°
2026-04-30 13:48 51.85708 1.15734 27421 ft 420 kts 72°
2026-04-30 13:48 51.86757 1.20170 27870 ft 423 kts 72°
2026-04-30 13:49 51.87808 1.24629 28293 ft 426 kts 72°
2026-04-30 13:49 51.88849 1.29053 28684 ft 428 kts 72°
2026-04-30 13:49 51.89913 1.33585 29090 ft 431 kts 72°
2026-04-30 13:49 51.90977 1.38127 29487 ft 433 kts 72°
2026-04-30 13:50 51.92050 1.42715 29875 ft 436 kts 72°
2026-04-30 13:50 51.94206 1.51975 30609 ft 441 kts 72°
2026-04-30 13:50 51.95289 1.56640 30971 ft 443 kts 72°
2026-04-30 13:51 51.96378 1.61335 31327 ft 445 kts 72°
2026-04-30 13:51 51.97469 1.66052 31677 ft 448 kts 72°
2026-04-30 13:51 51.98564 1.70796 32027 ft 450 kts 72°
2026-04-30 13:51 51.99662 1.75565 32384 ft 452 kts 72°
2026-04-30 13:52 52.00763 1.80357 32707 ft 454 kts 72°
2026-04-30 13:52 52.01867 1.85175 32996 ft 456 kts 73°
2026-04-30 13:52 52.02959 1.89949 33244 ft 458 kts 73°
2026-04-30 13:52 52.04071 1.94826 33453 ft 460 kts 73°
2026-04-30 13:53 52.05183 1.99721 33659 ft 461 kts 72°
2026-04-30 13:53 52.06297 2.04626 33873 ft 462 kts 72°
2026-04-30 13:53 52.07395 2.09470 34084 ft 461 kts 72°
2026-04-30 13:53 52.08504 2.14373 34344 ft 461 kts 72°
2026-04-30 13:54 52.09608 2.19267 34553 ft 461 kts 72°
2026-04-30 13:54 52.10711 2.24167 34751 ft 460 kts 72°
2026-04-30 13:54 52.11808 2.29055 34946 ft 460 kts 72°
2026-04-30 13:54 52.12905 2.33955 35133 ft 460 kts 72°
2026-04-30 13:55 52.14001 2.38865 35344 ft 460 kts 72°
2026-04-30 13:55 52.15080 2.43707 35522 ft 460 kts 73°
2026-04-30 13:55 52.16168 2.48602 35758 ft 459 kts 72°
2026-04-30 13:55 52.17250 2.53484 36024 ft 457 kts 72°
2026-04-30 13:56 52.18329 2.58363 36205 ft 457 kts 72°
2026-04-30 13:56 52.19408 2.63246 36395 ft 457 kts 72°
2026-04-30 13:56 52.20486 2.68138 36590 ft 457 kts 72°
2026-04-30 13:56 52.21558 2.73017 36772 ft 457 kts 72°
2026-04-30 13:57 52.22629 2.77903 36970 ft 457 kts 72°
2026-04-30 13:57 52.23682 2.82714 37158 ft 456 kts 72°
2026-04-30 13:57 52.24747 2.87596 37346 ft 456 kts 72°
2026-04-30 13:57 52.25811 2.92487 37508 ft 457 kts 72°
2026-04-30 13:58 52.26872 2.97371 37700 ft 456 kts 72°
2026-04-30 13:58 52.28973 3.07086 38244 ft 452 kts 72°
2026-04-30 13:58 52.30021 3.11947 38413 ft 452 kts 72°
2026-04-30 13:59 52.31051 3.16733 38594 ft 452 kts 72°
2026-04-30 13:59 52.32093 3.21589 38768 ft 452 kts 72°
2026-04-30 13:59 52.33132 3.26439 38945 ft 452 kts 72°
2026-04-30 13:59 52.34169 3.31297 39091 ft 452 kts 72°
2026-04-30 14:00 52.35193 3.36099 39215 ft 452 kts 72°
2026-04-30 14:00 52.37264 3.45852 39320 ft 452 kts 72°
2026-04-30 14:00 52.38290 3.50707 39318 ft 449 kts 72°
2026-04-30 14:01 52.40322 3.60347 39317 ft 448 kts 72°
2026-04-30 14:01 52.42338 3.69953 39322 ft 448 kts 72°
2026-04-30 14:02 52.44361 3.79642 39320 ft 448 kts 72°
2026-04-30 14:02 52.46374 3.89331 39315 ft 448 kts 72°
2026-04-30 14:03 52.48376 3.99015 39320 ft 448 kts 72°
2026-04-30 14:03 52.50344 4.08585 39329 ft 445 kts 72°
2026-04-30 14:04 52.52319 4.18229 39330 ft 445 kts 72°
2026-04-30 14:04 52.54288 4.27886 39339 ft 444 kts 72°
2026-04-30 14:05 52.56247 4.37548 39340 ft 444 kts 72°
2026-04-30 14:05 52.58199 4.47221 39346 ft 445 kts 72°